This demonstration page uses our WeatherBlox Daily Observations layout. Learn more.

Hourly Observations for September 24, 2019

Temp ( °F °C ) Dew Point ( °F °C ) Humidity (%) Winds ( mph kmh ) Pressure ( in mb ) Visibility ( mi km ) Precip ( " mm )
12:15 am 00:15 Clear 68 20.2 56 13.2 64 64 S 12 19 29.88 1012 10 16.0934 0 0
12:35 am 00:35 Clear 68 20 56 13.6 67 67 S 10 17 29.88 1012 10 16.0934 0 0
12:55 am 00:55 Clear 67 19.7 57 14.1 70 70 S 12 19 29.87 1012 10 16.0934 0 0
1:15 am 01:15 Clear 68 20 59 14.9 73 73 S 12 19 29.86 1011 10 16.0934 0 0
1:35 am 01:35 Clear 68 20.1 60 15.6 75 75 S 10 17 29.87 1011 10 16.0934 0 0
1:55 am 01:55 Clear 68 20.2 62 16.5 79 79 S 12 19 29.87 1011 10 16.0934 0 0
2:15 am 02:15 Clear 68 20.2 62 16.9 81 81 SSW 10 17 29.87 1011 10 16.0934 0 0
2:35 am 02:35 Clear 68 20 63 17.1 83 83 SSW 10 17 29.86 1011 10 16.0934 0 0
2:55 am 02:55 Clear 67 19.7 63 17.3 86 86 SSW 8 13 29.85 1011 10 16.0934 0 0
3:15 am 03:15 Clear 67 19.5 64 17.5 88 88 SSW 9 15 29.85 1011 10 16.0934 0 0
3:35 am 03:35 Clear 67 19.3 64 17.7 91 91 SSW 7 11 29.84 1011 10 16.0934 0 0
3:55 am 03:55 Clear 67 19.2 64 18 93 93 SSW 7 11 29.84 1011 10 16.0934 0 0
4:15 am 04:15 Clear 66 19.1 64 18 93 93 SSW 8 13 29.83 1010 10 16.0934 0 0
4:35 am 04:35 Clear 66 19.1 65 18.2 95 95 SSW 10 17 29.83 1010 10 16.0934 0 0
4:55 am 04:55 Clear 66 19.1 65 18.5 96 96 SSW 7 11 29.82 1010 10 16.0934 0 0
5:15 am 05:15 Clear 66 19.1 65 18.5 96 96 SSW 9 15 29.82 1010 10 16.0934 0 0
5:35 am 05:35 Clear 66 19.1 65 18.6 97 97 S 8 13 29.82 1010 10 16.0934 0 0
5:55 am 05:55 Clear 66 19 66 18.7 98 98 SSW 7 11 29.82 1010 10 16.0934 0 0
6:15 am 06:15 Clear 66 19 66 18.9 99 99 SSW 8 13 29.83 1010 7 11.26538 0 0
6:35 am 06:35 Partly Cloudy 66 19 66 18.8 99 99 S 9 15 29.82 1010 7 11.26538 0 0
6:55 am 06:55 Mostly Cloudy 66 19 66 18.8 99 99 S 6 9 29.82 1010 7 11.26538 0 0
7:15 am 07:15 Cloudy with Mist and Fog 66 19 66 19 100 100 S 6 9 29.81 1009 5 8.0467 0 0
7:35 am 07:35 Cloudy with Mist and Fog 67 19.5 67 19.5 100 100 SSW 7 11 29.81 1010 5 8.0467 0 0
7:55 am 07:55 Cloudy with Mist and Fog 67 19.5 67 19.5 100 100 SSW 10 17 29.8 1009 4 6.43736 0 0
8:15 am 08:15 Cloudy with Mist and Fog 67 19.6 67 19.6 100 100 SSW 8 13 29.79 1009 3 4.82802 0 0
8:35 am 08:35 Cloudy with Mist and Fog 68 20 68 20 100 100 SW 9 15 29.8 1009 4 6.43736 0 0
8:55 am 08:55 Cloudy 70 21 69 20.5 97 97 SW 10 17 29.8 1009 7 11.26538 0 0
9:15 am 09:15 Cloudy 71 21.5 69 20.5 94 94 SW 10 17 29.79 1009 7 11.26538 0 0
9:35 am 09:35 Cloudy 72 22 69 20.5 91 91 SSW 12 19 29.78 1009 10 16.0934 0 0
9:55 am 09:55 Cloudy 73 22.8 69 20.6 87 87 SW 9 15 29.76 1008 10 16.0934 0 0
10:15 am 10:15 Partly Cloudy 74 23.5 69 20.6 84 84 SW 9 15 29.76 1008 10 16.0934 0 0
10:35 am 10:35 Partly Cloudy 74 23.5 69 20.7 84 84 SW 9 15 29.76 1008 10 16.0934 0 0
10:55 am 10:55 Mostly Cloudy 76 24.3 69 20.6 80 80 SW 9 15 29.75 1008 10 16.0934 0 0
11:15 am 11:15 Cloudy 76 24.7 69 20.4 77 77 SW 8 13 29.74 1007 10 16.0934 0 0
11:35 am 11:35 Partly Cloudy 76 24.7 69 20.3 77 77 WSW 7 11 29.74 1007 10 16.0934 0 0
11:55 am 11:55 Mostly Cloudy 77 25.1 69 20.3 75 75 SW 5 7 29.73 1007 10 16.0934 0 0
12:15 pm 12:15 Mostly Cloudy 78 25.5 68 20.2 73 73 SW 9 15 29.71 1006 10 16.0934 0 0
12:35 pm 12:35 Mostly Cloudy 79 26.2 69 20.3 70 70 WSW 7 11 29.69 1005 10 16.0934 0 0
12:55 pm 12:55 Mostly Cloudy 80 26.5 69 20.6 70 70 SSW 7 11 29.7 1006 10 16.0934 0 0
1:15 pm 13:15 Partly Cloudy 81 27.3 68 20.1 65 65 SSW 9 15 29.68 1005 10 16.0934 0 0
1:35 pm 13:35 Partly Cloudy 83 28.2 68 20.2 62 62 SSW 9 15 29.66 1004 10 16.0934 0 0
1:55 pm 13:55 Partly Cloudy 83 28.6 68 20 60 60 SSW 12 19 29.66 1004 10 16.0934 0 0
2:15 pm 14:15 Mostly Cloudy 83 28.2 68 20 61 61 WSW 7 11 29.65 1004 10 16.0934 0 0
2:35 pm 14:35 Partly Cloudy 84 29 68 19.8 58 58 SW 7 11 29.63 1003 10 16.0934 0 0
2:55 pm 14:55 Sunny 83 28.5 67 19.7 59 59 SSW 7 11 29.63 1003 10 16.0934 0 0
3:15 pm 15:15 Sunny 84 29.1 67 19.2 55 55 SW 5 7 29.63 1003 10 16.0934 0 0
3:35 pm 15:35 Partly Cloudy 85 29.3 66 19.1 54 54 WSW 8 13 29.61 1003 10 16.0934 0 0
3:55 pm 15:55 Partly Cloudy 85 29.5 65 18.6 52 52 SW 5 7 29.6 1002 10 16.0934 0 0
4:15 pm 16:15 Sunny 85 29.6 63 17.4 48 48 WSW 5 7 29.6 1002 10 16.0934 0 0
4:35 pm 16:35 Sunny 86 29.8 61 16.2 44 44 W 7 11 29.58 1002 10 16.0934 0 0
4:55 pm 16:55 Sunny 86 29.8 62 16.5 45 45 W 7 11 29.57 1001 10 16.0934 0 0
5:15 pm 17:15 Sunny 86 29.8 62 16.4 44 44 Calm 29.57 1001 10 16.0934 0 0
5:35 pm 17:35 Sunny 85 29.6 62 16.4 45 45 SW 7 11 29.57 1001 10 16.0934 0 0
5:55 pm 17:55 Sunny 85 29.7 62 16.7 46 46 WSW 5 7 29.58 1002 10 16.0934 0 0
6:15 pm 18:15 Sunny 85 29.5 62 16.7 46 46 SW 3 6 29.57 1001 10 16.0934 0 0
6:35 pm 18:35 Sunny 84 29 61 16.1 46 46 W 5 7 29.58 1002 10 16.0934 0 0
6:55 pm 18:55 Sunny 82 27.9 58 14.7 44 44 W 6 9 29.58 1002 10 16.0934 0 0
7:15 pm 19:15 Sunny 80 26.5 58 14.6 48 48 W 3 6 29.59 1002 10 16.0934 0 0
7:35 pm 19:35 Clear 76 24.3 60 15.5 58 58 Calm 29.6 1002 10 16.0934 0 0
7:55 pm 19:55 Hazy 72 22.2 59 15.1 64 64 NNW 14 22 29.66 1004 5 8.0467 0 0
8:15 pm 20:15 Clear 72 22.1 55 12.8 56 56 N 7 11 29.66 1004 10 16.0934 0 0
8:35 pm 20:35 Clear 68 20.2 55 12.8 63 63 NNE 7 11 29.69 1005 10 16.0934 0 0
8:55 pm 20:55 Clear 67 19.3 55 13 67 67 NNE 6 9 29.7 1006 10 16.0934 0 0
9:15 pm 21:15 Clear 65 18.4 56 13.1 71 71 NNE 7 11 29.71 1006 10 16.0934 0 0
9:35 pm 21:35 Clear 64 17.6 55 12.9 74 74 NNE 6 9 29.73 1007 10 16.0934 0 0
9:55 pm 21:55 Clear 63 17 56 13.2 78 78 NNE 6 9 29.73 1007 10 16.0934 0 0
10:15 pm 22:15 Clear 63 17 55 12.8 76 76 NNE 7 11 29.74 1007 10 16.0934 0 0
10:35 pm 22:35 Clear 61 16.2 55 12.7 80 80 NE 7 11 29.76 1008 10 16.0934 0 0
10:55 pm 22:55 Clear 60 15.8 55 12.7 82 82 ENE 5 7 29.76 1008 10 16.0934 0 0
11:15 pm 23:15 Clear 61 15.9 55 12.5 80 80 ENE 8 13 29.77 1008 10 16.0934 0 0
11:35 pm 23:35 Clear 60 15.7 54 12.2 80 80 ENE 7 11 29.78 1009 10 16.0934 0 0
11:55 pm 23:55 Clear 60 15.7 54 12.3 80 80 ENE 7 11 29.77 1008 10 16.0934 0 0

Powered by AerisWeather